De Queen, AR

1:23 AM CDT on April 24, 2017 (GMT -0500)
Helms Sevier County

Weather History for KDEQ - April, 2012

Change the Weather History Date:

Friday, April 13, 2012

  Actual Average Record
Temperature  
Mean Temperature 67 °F 60 °F  
Max Temperature 77 °F 73 °F 92 °F (1936)
Min Temperature 56 °F 47 °F 27 °F (1940)
Degree Days  
Heating Degree Days 0 6  
Month to date heating degree days 34 93  
Since 1 July heating degree days 2358 2961  
Cooling Degree Days 2 1  
Month to date cooling degree days 19 13  
Year to date cooling degree days 67 24  
Growing Degree Days 15 (Base 50)    
Moisture  
Dew Point 57 °F    
Average Humidity 73    
Maximum Humidity 81    
Minimum Humidity 64    
Precipitation  
Precipitation 0.00 in 0.11 in 2.14 in (2014)
Month to date precipitation 1.22 1.46  
Year to date precipitation 11.26 13.10  
Snow  
Snow 0.00 in - - ()
Month to date snowfall 0.0  
Since 1 July snowfall 2.3  
Snow Depth 0.00 in    
Sea Level Pressure  
Sea Level Pressure 29.98 in    
Wind  
Wind Speed 6 mph (East)    
Max Wind Speed 15 mph    
Max Gust Speed 21 mph    
Visibility 10 miles    
Events      
T = Trace of Precipitation, MM = Missing Value Source: NWS Daily Summary

Daily Weather History Graph

Daily Weather History Graph

Search for Another Location

Airport or City:

Trip Planner

Search our weather history database for the weather conditions in past years. The results will help you decide how hot, cold, wet, or windy it might be!

Date:

Astronomy

Apr. 13, 2012 Rise Set
Actual Time 6:48 AM CDT 7:47 PM CDT
Civil Twilight 6:22 AM CDT 8:13 PM CDT
Nautical Twilight 5:52 AM CDT 8:44 PM CDT
Astronomical Twilight 5:21 AM CDT 9:15 PM CDT
Moon 2:13 AM CDT (4/13) 12:57 PM CDT (4/13)
Length of Visible Light 13h 50m
Length of Day
12h 59m
Waning Gibbous, 47% of the Moon is Illuminated
Apr 13
Waning Gibbous
Apr 21
New
Apr 29
First Quarter
May 5
Full
May 12
Last Quarter

Hourly Weather History & Observations

Time (CDT) Temp. Dew Point Humidity Pressure Visibility Wind Dir Wind Speed Gust Speed Precip Events Conditions
12:53 AM 55.9 °F 48.0 °F 75% 30.02 in 10.0 mi NNE 4.6 mph - N/A   Overcast
1:53 AM 57.9 °F 48.0 °F 70% 30.01 in 10.0 mi NE 4.6 mph - N/A   Overcast
2:53 AM 57.0 °F 48.9 °F 74% 30.00 in 10.0 mi NE 4.6 mph - N/A   Overcast
3:13 AM 57.2 °F 48.2 °F 72% 30.01 in 10.0 mi NE 3.5 mph - N/A   Overcast
3:53 AM 57.9 °F 48.9 °F 72% 29.99 in 10.0 mi NE 3.5 mph - N/A   Overcast
4:44 AM 57.2 °F 50.0 °F 77% 30.00 in 10.0 mi ENE 4.6 mph - N/A   Overcast
4:53 AM 57.9 °F 50.0 °F 75% 29.99 in 10.0 mi NE 5.8 mph - N/A   Overcast
5:53 AM 57.9 °F 50.0 °F 75% 29.99 in 10.0 mi NNE 4.6 mph - N/A   Overcast
6:00 AM 57.2 °F 50.0 °F 77% 30.00 in 10.0 mi NE 4.6 mph - N/A   Overcast
6:53 AM 57.0 °F 50.0 °F 77% 30.00 in 10.0 mi NNE 3.5 mph - N/A   Overcast
7:39 AM 57.2 °F 51.8 °F 82% 30.02 in 10.0 mi NNE 3.5 mph - N/A   Overcast
7:53 AM 59.0 °F 52.0 °F 78% 30.01 in 10.0 mi NE 3.5 mph - N/A   Overcast
8:53 AM 60.1 °F 54.0 °F 80% 30.02 in 10.0 mi East 8.1 mph - N/A   Overcast
9:43 AM 64.4 °F 60.8 °F 88% 30.03 in 8.0 mi ESE 6.9 mph - N/A   Overcast
10:34 AM 66.2 °F 62.6 °F 88% 30.03 in 8.0 mi Variable 5.8 mph - N/A   Overcast
10:53 AM 68.0 °F 63.0 °F 84% 30.02 in 8.0 mi Variable 3.5 mph - N/A   Overcast
11:21 AM 71.6 °F 64.4 °F 78% 30.02 in 10.0 mi SSE 6.9 mph - N/A   Scattered Clouds
11:53 AM 72.0 °F 62.1 °F 71% 30.00 in 10.0 mi South 12.7 mph 20.7 mph N/A   Mostly Cloudy
12:53 PM 73.9 °F 62.1 °F 66% 29.98 in 10.0 mi SSE 5.8 mph 18.4 mph N/A   Overcast
1:53 PM 73.9 °F 63.0 °F 68% 29.97 in 10.0 mi South 5.8 mph 16.1 mph N/A   Overcast
2:53 PM 73.9 °F 63.0 °F 68% 29.95 in 10.0 mi SSE 5.8 mph - N/A   Overcast
3:53 PM 75.9 °F 62.1 °F 62% 29.92 in 10.0 mi SSE 13.8 mph 19.6 mph N/A   Overcast
4:53 PM 75.0 °F 62.1 °F 64% 29.91 in 10.0 mi SSE 8.1 mph - N/A   Overcast
5:53 PM 73.9 °F 63.0 °F 68% 29.92 in 10.0 mi ESE 4.6 mph - N/A   Overcast
6:53 PM 72.0 °F 63.0 °F 73% 29.91 in 10.0 mi East 3.5 mph - N/A   Overcast
7:53 PM 71.1 °F 63.0 °F 75% 29.89 in 10.0 mi East 4.6 mph - N/A   Mostly Cloudy
8:53 PM 71.1 °F 63.0 °F 75% 29.92 in 10.0 mi East 4.6 mph - N/A   Overcast
9:53 PM 70.0 °F 63.0 °F 78% 29.93 in 10.0 mi ENE 3.5 mph - N/A   Overcast
10:53 PM 70.0 °F 63.0 °F 78% 29.94 in 10.0 mi ENE 4.6 mph - N/A   Overcast
11:53 PM 70.0 °F 63.0 °F 78% 29.93 in 10.0 mi East 5.8 mph - N/A   Overcast